Weather History for Spokane, WA

Change the Weather History Date:

Monday, October 25, 2010

  Actual Average Record
Temperature  
Mean Temperature 41 °F 44 °F  
Max Temperature 45 °F 53 °F 71 °F (1966)
Min Temperature 36 °F 35 °F 12 °F (1919)
Degree Days  
Heating Degree Days 24 21  
Month to date heating degree days 338 406  
Since 1 July heating degree days 591 654  
Cooling Degree Days 0 0  
Month to date cooling degree days 4 0  
Year to date cooling degree days 380 449  
Moisture  
Dew Point 37 °F    
Average Humidity 82    
Maximum Humidity 93    
Minimum Humidity 70    
Precipitation  
Precipitation 0.11 in 0.06 in 0.48 in (1900)
Month to date precipitation 1.11 0.85  
Year to date precipitation 12.31 11.63  
Snow  
Snow 0.00 in 0.00 in 3.30 in (1975)
Month to date snowfall 0.0 0.0  
Since 1 July snowfall 0.0 0.0  
Since 1 September snowfall 0.0 0.0  
Snow Depth 0.00 in    
Sea Level Pressure  
Sea Level Pressure 29.65 in    
Wind  
Wind Speed 21 mph (SW)    
Max Wind Speed 32 mph    
Max Gust Speed 39 mph    
Visibility 10 miles    
Events Rain    
T = Trace of Precipitation, MM = Missing Value Source: NWS Daily Summary

Daily Weather History Graph

Daily Weather History Graph

Search for Another Location

Airport:

Trip Planner

Search our weather history database for the weather conditions in past years. The results will help you decide how hot, cold, wet, or windy it might be!

Date:

Astronomy

Oct. 25, 2010 Rise Set
Actual Time 7:23 AM PDT 5:43 PM PDT
Civil Twilight 6:52 AM PDT 6:15 PM PDT
Nautical Twilight 6:16 AM PDT 6:51 PM PDT
Astronomical Twilight 5:40 AM PDT 7:27 PM PDT
Moon 6:58 PM PDT (10/25) 10:27 AM PDT (10/25)
Length of Visible Light 11h 23m
Length of Day
10h 20m
Waning Gibbous, 93% of the Moon is Illuminated
Oct 25
Waning Gibbous
Oct 30
Last Quarter
Nov 5
New
Nov 13
First Quarter
Nov 21
Full

Hourly Weather History & Observations

Time (PDT) Temp. Windchill Dew Point Humidity Pressure Visibility Wind Dir Wind Speed Gust Speed Precip Events Conditions
12:53 AM 41.0 °F 30.7 °F 36.0 °F 82% 29.49 in 10.0 mi SW 25.3 mph 38.0 mph N/A   Overcast
1:53 AM 41.0 °F 30.5 °F 36.0 °F 82% 29.51 in 10.0 mi SW 26.5 mph - 0.00 in   Overcast
2:53 AM 39.9 °F 31.1 °F 36.0 °F 86% 29.55 in 10.0 mi SW 17.3 mph 25.3 mph N/A   Overcast
3:07 AM 39.2 °F 29.8 °F 35.6 °F 87% 29.55 in 10.0 mi SW 18.4 mph - N/A   Overcast
3:53 AM 39.9 °F 30.2 °F 36.0 °F 86% 29.57 in 10.0 mi SW 20.7 mph 27.6 mph N/A   Overcast
4:53 AM 39.9 °F 31.8 °F 36.0 °F 86% 29.59 in 10.0 mi SW 15.0 mph - N/A   Overcast
5:53 AM 39.0 °F 30.3 °F 36.0 °F 89% 29.62 in 10.0 mi SW 16.1 mph - N/A   Overcast
6:53 AM 39.0 °F 29.3 °F 36.0 °F 89% 29.64 in 10.0 mi SW 19.6 mph - N/A   Overcast
7:53 AM 39.9 °F 31.8 °F 36.0 °F 86% 29.66 in 10.0 mi SSW 15.0 mph - N/A   Overcast
8:53 AM 41.0 °F 31.6 °F 36.0 °F 82% 29.67 in 10.0 mi SW 20.7 mph 28.8 mph 0.00 in Rain Light Rain
9:53 AM 41.0 °F 32.2 °F 37.9 °F 89% 29.68 in 10.0 mi SSW 18.4 mph 25.3 mph 0.01 in Rain Light Rain
10:53 AM 39.9 °F 30.8 °F 37.9 °F 93% 29.69 in 7.0 mi SW 18.4 mph - 0.03 in Rain Light Rain
11:53 AM 41.0 °F 30.7 °F 39.2 °F 93% 29.66 in 8.0 mi SW 25.3 mph 28.8 mph N/A Rain Light Rain
12:53 PM 42.1 °F 31.7 °F 39.9 °F 92% 29.68 in 10.0 mi SW 27.6 mph 33.4 mph 0.03 in Rain Light Rain
1:26 PM 42.8 °F 32.7 °F 39.2 °F 87% 29.65 in 7.0 mi SW 27.6 mph 32.2 mph 0.00 in Rain Light Rain
1:53 PM 43.0 °F 33.8 °F 39.9 °F 89% 29.67 in 9.0 mi SW 23.0 mph 33.4 mph 0.01 in Rain Light Rain
2:53 PM 44.1 °F 34.8 °F 39.9 °F 85% 29.67 in 10.0 mi SW 25.3 mph 32.2 mph 0.00 in Rain Light Rain
3:35 PM 44.6 °F 35.5 °F 37.4 °F 76% 29.65 in 10.0 mi SW 25.3 mph 35.7 mph 0.00 in   Overcast
3:53 PM 44.1 °F 34.0 °F 37.9 °F 79% 29.67 in 10.0 mi SW 29.9 mph 38.0 mph 0.00 in   Overcast
4:53 PM 44.1 °F 34.6 °F 36.0 °F 73% 29.68 in 10.0 mi SW 26.5 mph 33.4 mph N/A   Overcast
5:53 PM 43.0 °F 33.8 °F 35.1 °F 74% 29.70 in 10.0 mi SW 23.0 mph 32.2 mph N/A   Overcast
6:53 PM 43.0 °F 33.8 °F 35.1 °F 74% 29.72 in 10.0 mi SW 23.0 mph 31.1 mph N/A   Overcast
7:53 PM 43.0 °F 34.2 °F 35.1 °F 74% 29.73 in 10.0 mi SW 20.7 mph - N/A   Overcast
8:53 PM 42.1 °F 34.5 °F 34.0 °F 73% 29.73 in 10.0 mi SW 15.0 mph 26.5 mph N/A   Overcast
9:53 PM 41.0 °F 31.6 °F 34.0 °F 76% 29.74 in 10.0 mi SSW 20.7 mph - N/A   Overcast
10:53 PM 39.0 °F 30.6 °F 34.0 °F 82% 29.74 in 10.0 mi SSW 15.0 mph - N/A   Overcast
11:53 PM 37.9 °F 28.2 °F 34.0 °F 86% 29.75 in 10.0 mi SSW 18.4 mph - N/A   Mostly Cloudy